Weather History for PASI - October, 2013

Change the Weather History Date:

Wednesday, October 9, 2013

  Actual Average Record
Temperature  
Mean Temperature 52 °F -  
Max Temperature 55 °F 52 °F 60 °F (1979)
Min Temperature 48 °F 43 °F 31 °F (1972)
Degree Days  
Heating Degree Days 14    
Growing Degree Days 2 (Base 50)    
Moisture  
Dew Point 45 °F    
Average Humidity 77    
Maximum Humidity 90    
Minimum Humidity 63    
Precipitation  
Precipitation 1.24 in - - ()
Sea Level Pressure  
Sea Level Pressure 29.54 in    
Wind  
Wind Speed 22 mph (WSW)    
Max Wind Speed 32 mph    
Max Gust Speed 48 mph    
Visibility 7 miles    
Events Rain    
Averages and records for this station are not official NWS values.
T = Trace of Precipitation, MM = Missing Value Source: NWS Daily Summary

Daily Weather History Graph

Daily Weather History Graph

Search for Another Location

Airport or City:

Trip Planner

Search our weather history database for the weather conditions in past years. The results will help you decide how hot, cold, wet, or windy it might be!

Date:

Astronomy

Oct. 09, 2013 Rise Set
Actual Time 7:22 AM AKDT 6:13 PM AKDT
Civil Twilight 6:44 AM AKDT 6:51 PM AKDT
Nautical Twilight 6:00 AM AKDT 7:35 PM AKDT
Astronomical Twilight 5:15 AM AKDT 8:20 PM AKDT
Moon 1:15 PM AKDT (10/9) 9:06 PM AKDT (10/9)
Length of Visible Light 12h 07m
Length of Day
10h 50m
Waxing Crescent, 27% of the Moon is Illuminated
Oct 9
Waxing Crescent
Oct 11
First Quarter
Oct 18
Full
Oct 26
Last Quarter
Nov 3
New

Hourly Weather History & Observations

Time (AKDT) Temp. Dew Point Humidity Pressure Visibility Wind Dir Wind Speed Gust Speed Precip Events Conditions
12:53 AM 55.0 °F 48.9 °F 80% 29.50 in 3.0 mi South 28.8 mph 39.1 mph 0.20 in Rain Heavy Rain
1:10 AM 55.0 °F 50.0 °F 83% 29.46 in 2.5 mi South 25.3 mph 40.3 mph 0.09 in Rain Heavy Rain
1:34 AM 55.0 °F 50.0 °F 83% 29.45 in 3.0 mi SSE 27.6 mph 39.1 mph 0.21 in Rain Heavy Rain
1:45 AM 55.0 °F 50.0 °F 83% 29.43 in 2.5 mi SSE 26.5 mph 48.3 mph 0.27 in Rain Heavy Rain
1:53 AM 55.0 °F 50.0 °F 83% 29.43 in 3.0 mi SSE 32.2 mph 47.2 mph 0.31 in Rain Heavy Rain
2:02 AM 55.9 °F 50.0 °F 80% 29.42 in 3.0 mi SSE 27.6 mph 43.7 mph 0.04 in Rain Heavy Rain
2:28 AM 55.0 °F 50.0 °F 83% 29.40 in 2.5 mi South 28.8 mph 42.6 mph 0.16 in Rain Heavy Rain
2:53 AM 55.0 °F 51.1 °F 86% 29.38 in 2.0 mi South 24.2 mph 40.3 mph 0.29 in Rain Heavy Rain
3:34 AM 54.0 °F 51.1 °F 90% 29.38 in 2.5 mi SSW 24.2 mph 35.7 mph 0.18 in Rain Rain
3:43 AM 54.0 °F 51.1 °F 90% 29.37 in 2.5 mi SW 25.3 mph 32.2 mph 0.21 in Rain Heavy Rain
3:53 AM 54.0 °F 50.0 °F 86% 29.38 in 2.5 mi WSW 21.9 mph 33.4 mph 0.25 in Rain Heavy Rain
3:59 AM 53.1 °F 48.9 °F 86% 29.38 in 2.5 mi WSW 23.0 mph 29.9 mph 0.01 in Rain Light Rain
4:06 AM 53.1 °F 48.0 °F 83% 29.39 in 4.0 mi West 31.1 mph 36.8 mph 0.02 in Rain Rain
4:21 AM 51.1 °F 46.9 °F 86% 29.41 in 8.0 mi West 19.6 mph 29.9 mph 0.03 in Rain Light Rain
4:34 AM 51.1 °F 46.0 °F 83% 29.42 in 6.0 mi West 28.8 mph 39.1 mph 0.04 in Rain Light Rain
4:44 AM 51.1 °F 46.0 °F 83% 29.43 in 10.0 mi West 21.9 mph 36.8 mph 0.04 in Rain Light Rain
4:53 AM 52.0 °F 45.0 °F 77% 29.43 in 10.0 mi West 18.4 mph 28.8 mph 0.04 in Rain Light Rain
5:53 AM 52.0 °F 39.9 °F 63% 29.48 in 10.0 mi West 20.7 mph 27.6 mph 0.00 in   Overcast
6:53 AM 51.1 °F 41.0 °F 68% 29.49 in 10.0 mi WSW 21.9 mph 27.6 mph N/A   Overcast
7:53 AM 51.1 °F 41.0 °F 68% 29.51 in 9.0 mi WSW 17.3 mph 25.3 mph N/A   Overcast
8:53 AM 51.1 °F 42.1 °F 71% 29.54 in 10.0 mi West 15.0 mph 24.2 mph N/A   Overcast
9:53 AM 50.0 °F 39.9 °F 68% 29.55 in 7.0 mi WSW 15.0 mph 25.3 mph 0.01 in Rain Light Rain
10:03 AM 50.0 °F 42.1 °F 74% 29.55 in 6.0 mi West 11.5 mph - 0.00 in Rain Light Rain
10:09 AM 50.0 °F 43.0 °F 77% 29.54 in 5.0 mi West 17.3 mph 21.9 mph 0.02 in Rain Small Hail
10:13 AM 50.0 °F 41.0 °F 71% 29.54 in 6.0 mi WSW 13.8 mph 21.9 mph 0.02 in Rain Light Rain
10:24 AM 51.1 °F 41.0 °F 68% 29.54 in 6.0 mi WSW 17.3 mph 24.2 mph 0.02 in   Overcast
10:53 AM 51.1 °F 43.0 °F 74% 29.56 in 8.0 mi SW 21.9 mph - 0.02 in   Mostly Cloudy
11:53 AM 48.9 °F 42.1 °F 77% 29.58 in 9.0 mi West 12.7 mph - 0.02 in Rain Light Rain
12:25 PM 51.1 °F 42.1 °F 71% 29.58 in 7.0 mi WSW 26.5 mph 38.0 mph 0.00 in   Overcast
12:42 PM 48.9 °F 42.1 °F 77% 29.59 in 9.0 mi WNW 18.4 mph - N/A Rain Light Rain
12:53 PM 50.0 °F 42.1 °F 74% 29.60 in 9.0 mi West 10.4 mph - N/A Rain Light Rain
1:53 PM 48.9 °F 42.1 °F 77% 29.61 in 8.0 mi WNW 18.4 mph - 0.03 in Rain Light Rain
2:53 PM 51.1 °F 41.0 °F 68% 29.60 in 9.0 mi WSW 19.6 mph 28.8 mph 0.01 in Rain Light Rain
3:53 PM 50.0 °F 41.0 °F 71% 29.64 in 10.0 mi WSW 16.1 mph - 0.00 in Rain Light Rain
4:53 PM 50.0 °F 42.1 °F 74% 29.65 in 8.0 mi WSW 12.7 mph 21.9 mph 0.01 in Rain Light Rain
5:46 PM 48.9 °F 42.1 °F 77% 29.67 in 7.0 mi NW 15.0 mph - 0.00 in Rain Light Rain
5:53 PM 48.9 °F 42.1 °F 77% 29.68 in 5.0 mi West 11.5 mph - 0.01 in Rain Light Rain
6:53 PM 48.0 °F 43.0 °F 83% 29.69 in 9.0 mi Calm Calm - 0.01 in Rain Light Rain
7:04 PM 50.0 °F 43.0 °F 77% 29.69 in 10.0 mi WNW 10.4 mph - 0.00 in Rain Light Rain
7:14 PM 51.1 °F 43.0 °F 74% 29.69 in 10.0 mi WNW 6.9 mph - 0.00 in Rain Light Rain
7:53 PM 48.9 °F 42.1 °F 77% 29.71 in 7.0 mi NW 11.5 mph 17.3 mph 0.01 in Rain Light Rain
8:53 PM 51.1 °F 42.1 °F 71% 29.73 in 10.0 mi West 15.0 mph 24.2 mph 0.00 in Rain Light Rain
9:53 PM 51.1 °F 42.1 °F 71% 29.75 in 10.0 mi West 13.8 mph - 0.00 in Rain Light Rain
10:53 PM 51.1 °F 44.1 °F 77% 29.78 in 10.0 mi NW 12.7 mph - 0.02 in   Overcast
11:53 PM 50.0 °F 43.0 °F 77% 29.80 in 10.0 mi West 8.1 mph - 0.00 in   Overcast